[[{"header":{"parameterUnit":"m.s-1","parameterCategory":1,"la1":30.2991,"la2":30.254,"lo1":-89.0895,"lo2":-89.0444,"dy":0.0017,"dx":0.0017,"nx":28,"ny":28,"refTime":"2025-04-05T03:00:00:Z","depth":0,"parameterNumber":2,"parameterNumberName":"U-component_of_WINDS"},"data":[0,0,0,0,0,0,0,0,0,0,0,0,0,0,0,0,0,0,0,0,0,0,0,0,0,0,0,0,0,0,0,0,0,0,0,0,0,0,0,0,0,0,0,0,0,0,0,0,0,0,0,0,0,0,0,0,0,0,-6.6527,-6.6528,0,-6.6667,-6.6668,-6.667,-6.6657,-6.6654,-6.6652,-6.665,-6.679,-6.6796,-6.6802,0,0,0,0,0,0,0,0,0,0,0,0,0,-6.6245,-6.6251,-6.6526,-6.6528,-6.653,-6.6666,-6.6668,-6.667,-6.6657,-6.6654,-6.6652,-6.6649,-6.6788,-6.6795,-6.6802,0,0,0,0,0,0,0,0,0,0,0,0,0,-6.6375,-6.6252,-6.6526,-6.654,-6.6542,-6.6666,-6.6668,-6.6671,-6.6657,-6.6654,-6.6651,-6.6648,-6.6786,-6.6794,-6.6803,-6.6921,0,0,-6.6829,-6.6833,0,0,0,0,0,0,0,0,-6.6367,-6.6385,-6.6536,-6.6539,-6.6542,-6.6641,-6.6621,-6.6755,-6.6658,-6.6614,-6.665,-6.6646,-6.6743,-6.6755,-6.6788,-6.6927,-6.6933,-6.683,-6.6835,-6.6839,-6.6841,0,0,0,0,0,0,0,-6.6358,-6.6379,-6.6582,-6.6538,-6.6542,-6.6538,-6.6553,-6.6646,-6.6695,-6.6617,-6.6617,-6.6634,-6.6744,-6.678,-6.6791,-6.6936,-6.683,-6.6837,-6.6843,-6.6846,-6.7179,-6.7183,0,0,0,0,0,0,-6.6347,-6.6371,-6.6577,-6.6586,-6.6445,-6.6546,-6.6563,-6.6612,-6.6694,-6.6703,-6.6636,-6.6633,-6.6767,-6.6781,-6.6796,-6.6939,-6.6839,-6.6847,-6.6852,-6.7176,-6.718,-6.7184,0,0,0,0,0,0,-6.6341,-6.6365,-6.6572,-6.6479,-6.6505,-6.6554,-6.661,-6.6617,-6.6653,-6.6708,-6.6716,-6.6664,-6.6765,-6.6784,-6.689,-6.6944,-6.6851,-6.6859,-6.7171,-6.7177,-6.7182,-6.7226,0,0,0,0,0,0,-6.6333,-6.6363,-6.6408,-6.648,-6.651,-6.6664,-6.6614,-6.6622,-6.6668,-6.6664,-6.6736,-6.6745,-6.6764,-6.6878,-6.6899,-6.6954,-6.6865,-6.7167,-6.7174,-6.718,-6.7219,-6.7232,-6.7242,0,0,0,0,0,-6.6323,-6.6414,-6.6411,-6.6436,-6.6568,-6.6667,-6.6684,-6.6704,-6.6672,-6.6718,-6.6754,-6.6743,-6.6936,-6.6889,-6.6913,-6.6971,-6.7163,-6.7172,-6.718,-6.7214,-6.7229,-6.7242,0,0,0,0,0,0,-6.6345,-6.6424,-6.6421,-6.6538,-6.6596,-6.6664,-6.6722,-6.672,-6.6787,-6.6781,-6.6803,-6.6819,-6.6926,-6.696,-6.6906,-6.709,-6.7045,-6.7058,-6.7063,-6.7078,-6.7089,-6.7077,-6.6873,0,0,0,0,0,-6.6365,-6.644,-6.6504,-6.6601,-6.6631,-6.6672,-6.6716,-6.6727,-6.6788,-6.6812,-6.6855,-6.6914,-6.6987,-6.7035,-6.7106,-6.7226,-6.7241,-6.7278,-6.729,-6.7299,-6.7309,-6.7374,-6.7391,-6.7211,-6.7211,-6.7211,0,0,-6.6404,-6.6456,-6.6501,-6.6607,-6.6653,-6.673,-6.6692,-6.6774,-6.6831,-6.6824,-6.6926,-6.6961,-6.7028,-6.7141,-6.7194,-6.7173,-6.7363,-6.7309,-6.7316,-6.7321,-6.7385,-6.7402,-6.7417,-6.7217,-6.7216,-6.7215,0,0,-6.6514,-6.6562,-6.6648,-6.6696,-6.6768,-6.6795,-6.6816,-6.6886,-6.6909,-6.7013,-6.7009,-6.7077,-6.7204,-6.7251,-6.7292,-6.7425,-6.7416,-6.7447,-6.7506,-6.7569,-6.7583,-6.7596,-6.7641,-6.7658,-6.7458,-6.7458,-6.7458,0,-6.6553,-6.6668,-6.6692,-6.6776,-6.6822,-6.6822,-6.6909,-6.6955,-6.7045,-6.7077,-6.7053,-6.7213,-6.7258,-6.7382,-6.7415,-6.7449,-6.7472,-6.7437,-6.758,-6.7593,-6.7605,-6.7648,-6.7666,-6.7461,-6.7461,-6.7461,-6.746,0,-6.6712,-6.6793,-6.6854,-6.6943,-6.6997,-6.7082,-6.7118,-6.717,-6.7178,-6.7208,-6.7314,-6.7369,-6.7451,-6.7483,-6.749,-6.7609,-6.7594,-6.7575,-6.753,-6.7625,-6.7666,-6.7683,-6.7466,-6.7465,-6.7464,-6.7463,0,0,-6.6836,-6.694,-6.6962,-6.7002,-6.7083,-6.7145,-6.7231,-6.7313,-6.7356,-6.742,-6.7491,-6.76,-6.7584,-6.763,-6.7644,-6.7701,-6.7801,-6.7675,-6.7677,-6.7694,-6.7933,-6.7944,-6.7963,-6.7798,-6.7801,-6.7804,-6.7927,0,-6.6952,-6.7104,-6.713,-6.7262,-6.7336,-6.7339,-6.7414,-6.7471,-6.7503,-6.757,-6.7605,-6.7681,-6.7655,-6.7683,-6.7739,-6.7776,-6.7848,-6.7769,-6.7862,-6.7865,-6.7842,-6.7985,-6.7997,-6.811,-6.7943,-6.7946,-6.7948,0,-6.7107,-6.7176,-6.7316,-6.7388,-6.742,-6.7486,-6.7564,-6.7629,-6.7695,-6.7714,-6.7768,-6.7776,-6.7864,-6.7819,-6.7941,-6.7886,-6.7927,-6.7951,-6.7956,-6.7962,-6.7909,-6.7992,-6.8147,-6.8162,-6.7974,-6.7972,-6.797,0,-6.718,-6.7309,-6.7409,-6.7444,-6.7531,-6.7578,-6.7616,-6.7679,-6.7727,-6.7795,-6.7826,-6.7904,-6.7946,-6.8006,-6.8034,-6.7999,-6.8154,-6.8111,-6.8171,-6.817,-6.82,-6.8197,-6.8359,-6.8232,-6.8231,-6.8231,-6.8231,0,-6.7305,-6.739,-6.7443,-6.7505,-6.7601,-6.763,-6.7724,-6.7761,-6.7818,-6.7886,-6.7895,-6.7958,-6.7994,-6.8064,-6.8087,-6.8184,-6.8203,-6.822,-6.8225,-6.8218,-6.8215,-6.8241,-6.8233,-6.8236,-6.8235,-6.8234,-6.8233,0,-6.7401,-6.7441,-6.755,-6.7625,-6.7645,-6.7712,-6.7776,-6.7836,-6.7869,-6.7955,-6.7977,-6.8028,-6.811,-6.8147,-6.8248,-6.8264,-6.8373,-6.8374,-6.8351,-6.8352,-6.8409,-6.8402,-6.8591,-6.8617,-6.8475,-6.8476,-6.8477,0,-6.7476,-6.7542,-6.7624,-6.7671,-6.7711,-6.7787,-6.7837,-6.787,-6.7921,-6.8002,-6.8052,-6.8135,-6.8203,-6.8334,-6.838,-6.8457,-6.8458,-6.8519,-6.8469,-6.846,-6.8456,-6.845,-6.8456,-6.8527,-6.8528,-6.8529,-6.853,0,-6.7605,-6.7622,-6.7694,-6.7773,-6.7833,-6.7897,-6.7959,-6.7997,-6.804,-6.8097,-6.8182,-6.8235,-6.834,-6.8421,-6.8503,-6.8541,-6.8543,-6.8547,-6.8564,-6.8555,-6.8538,-6.8546,-6.8373,-6.8541,-6.854,-6.8539,-6.8538,-6.8538,-6.7691,-6.775,-6.7817,-6.7897,-6.7949,-6.8007,-6.8067,-6.8109,-6.8181,-6.8268,-6.8284,-6.8374,-6.844,-6.8549,-6.8592,-6.8663,-6.8647,-6.8673,-6.8679,-6.8684,-6.8687,-6.8531,-6.8678,-6.8678,-6.8678,-6.8677,-6.8677,0,-6.7818,-6.7863,-6.7936,-6.8024,-6.8087,-6.8087,-6.8156,-6.8209,-6.8288,-6.835,-6.8418,-6.8516,-6.8596,-6.8649,-6.8731,-6.8777,-6.878,-6.8797,-6.8792,-6.8801,-6.8697,-6.8672,-6.8793,-6.8793,-6.8793,-6.8793,-6.8793,-6.8793,-6.7891,-6.799,-6.8016,-6.8141,-6.8185,-6.8274,-6.8313,-6.8368,-6.8417,-6.8527,-6.8594,-6.8629,-6.8688,-6.8774,-6.8848,-6.8861,-6.8889,-6.8907,-6.892,-6.882,-6.8808,-6.8796,-6.8773,-6.8914,-6.8914,-6.9018,-6.9019,-6.9019]},{"header":{"parameterUnit":"m.s-1","parameterCategory":1,"la1":30.2991,"la2":30.254,"lo1":-89.0895,"lo2":-89.0444,"dy":0.0017,"dx":0.0017,"nx":28,"ny":28,"refTime":"2025-04-05T03:00:00:Z","depth":0,"parameterNumber":3,"parameterNumberName":"V-component_of_WINDS"},"data":[0,0,0,0,0,0,0,0,0,0,0,0,0,0,0,0,0,0,0,0,0,0,0,0,0,0,0,0,0,0,0,0,0,0,0,0,0,0,0,0,0,0,0,0,0,0,0,0,0,0,0,0,0,0,0,0,0,0,4.8238,4.824,0,4.8344,4.8345,4.8346,4.838,4.8379,4.8379,4.8378,4.8482,4.8485,4.8488,0,0,0,0,0,0,0,0,0,0,0,0,0,4.8064,4.8067,4.8238,4.824,4.8241,4.8344,4.8345,4.8347,4.838,4.8379,4.8379,4.8378,4.8481,4.8485,4.8488,0,0,0,0,0,0,0,0,0,0,0,0,0,4.8151,4.8068,4.8238,4.827,4.8274,4.8343,4.8345,4.8347,4.838,4.8379,4.8378,4.8378,4.848,4.8484,4.8489,4.8533,0,0,4.8504,4.8506,0,0,0,0,0,0,0,0,4.8146,4.8158,4.8264,4.8268,4.8272,4.8348,4.8322,4.8409,4.838,4.8339,4.8378,4.8377,4.8438,4.8446,4.8467,4.8538,4.8542,4.8504,4.8507,4.8509,4.851,0,0,0,0,0,0,0,4.814,4.8153,4.828,4.8265,4.8271,4.8279,4.829,4.8338,4.8391,4.8343,4.8346,4.8358,4.844,4.8462,4.847,4.8544,4.8504,4.8508,4.8511,4.8513,4.8659,4.866,0,0,0,0,0,0,4.8129,4.8148,4.8277,4.8283,4.8207,4.8282,4.8295,4.8324,4.8391,4.84,4.8358,4.8359,4.8454,4.8464,4.8473,4.8531,4.8509,4.8514,4.8516,4.8658,4.866,4.8661,0,0,0,0,0,0,4.8125,4.814,4.8272,4.8217,4.8234,4.8286,4.8318,4.8327,4.835,4.8403,4.8412,4.8372,4.8454,4.8467,4.8519,4.8535,4.8516,4.852,4.8657,4.8659,4.866,4.8646,0,0,0,0,0,0,4.812,4.8139,4.8156,4.8217,4.8237,4.8316,4.8319,4.8329,4.8358,4.836,4.8418,4.8426,4.8455,4.8512,4.8524,4.8542,4.8524,4.8656,4.8658,4.866,4.8645,4.8647,4.8648,0,0,0,0,0,4.8114,4.8146,4.8157,4.8172,4.826,4.8317,4.8329,4.8362,4.8359,4.8377,4.8412,4.8425,4.8532,4.8517,4.8531,4.855,4.8655,4.8657,4.8659,4.8645,4.8647,4.8648,0,0,0,0,0,0,4.8084,4.8155,4.8167,4.822,4.8263,4.8323,4.8346,4.8362,4.8405,4.8405,4.8443,4.8456,4.8506,4.8533,4.8515,4.8598,4.8594,4.8599,4.8578,4.858,4.8582,4.8574,4.8528,0,0,0,0,0,4.8084,4.8126,4.8185,4.8226,4.8247,4.8293,4.8319,4.8342,4.8387,4.8404,4.8442,4.8485,4.8528,4.8556,4.8599,4.865,4.8664,4.8671,4.8672,4.8673,4.8677,4.8709,4.8713,4.8668,4.8668,4.8668,0,0,4.8083,4.8127,4.8151,4.8221,4.8257,4.8299,4.8308,4.8351,4.8383,4.841,4.8463,4.8493,4.8543,4.8595,4.862,4.862,4.8693,4.8676,4.8676,4.868,4.8711,4.8715,4.8719,4.867,4.8669,4.8669,0,0,4.8104,4.8141,4.8181,4.8217,4.8272,4.8303,4.8313,4.8372,4.8393,4.8447,4.847,4.8508,4.8581,4.8617,4.8644,4.8683,4.8697,4.8696,4.8703,4.8734,4.8737,4.8741,4.8756,4.8761,4.87,4.87,4.87,0,4.8096,4.8161,4.8199,4.8243,4.8274,4.8303,4.8344,4.8377,4.8442,4.8463,4.8462,4.8558,4.8593,4.8656,4.8666,4.8686,4.8699,4.8689,4.8734,4.8738,4.8741,4.8756,4.8762,4.8699,4.8699,4.8699,4.8699,0,4.815,4.8195,4.822,4.8286,4.832,4.8361,4.8405,4.8435,4.8456,4.8487,4.8542,4.8587,4.864,4.8657,4.8676,4.8723,4.8722,4.8727,4.8723,4.8745,4.8759,4.8765,4.8699,4.8699,4.8699,4.8699,0,0,4.8152,4.824,4.8249,4.828,4.8345,4.838,4.8424,4.8479,4.8505,4.8549,4.8588,4.8652,4.8658,4.869,4.8713,4.874,4.877,4.8742,4.8744,4.8747,4.8827,4.8823,4.8829,4.878,4.8781,4.8782,4.8823,0,4.8182,4.8263,4.83,4.8364,4.8408,4.8438,4.8477,4.8521,4.8552,4.8593,4.8627,4.8672,4.8676,4.8696,4.8724,4.876,4.8787,4.8758,4.8816,4.8818,4.8803,4.8836,4.8831,4.8868,4.8829,4.883,4.8831,0,4.8226,4.8275,4.8344,4.8407,4.8426,4.846,4.8515,4.8554,4.8605,4.8626,4.8663,4.8687,4.8735,4.8729,4.8796,4.8776,4.8802,4.8824,4.8826,4.8833,4.8825,4.8844,4.888,4.8885,4.884,4.8839,4.8838,0,4.8223,4.8305,4.8358,4.8383,4.8457,4.8481,4.8513,4.8563,4.8595,4.8642,4.8664,4.8715,4.8743,4.8783,4.882,4.8813,4.8885,4.8881,4.8903,4.8903,4.8916,4.8915,4.8957,4.8933,4.8933,4.8933,4.8932,0,4.8252,4.8294,4.8358,4.839,4.8438,4.8481,4.8527,4.8561,4.8606,4.8646,4.8675,4.8712,4.8758,4.8801,4.883,4.8883,4.8895,4.8913,4.892,4.8911,4.8909,4.8928,4.8927,4.8934,4.8934,4.8933,4.8933,0,4.8255,4.83,4.836,4.8426,4.8444,4.8477,4.8534,4.8567,4.8601,4.8651,4.8665,4.8718,4.877,4.8812,4.8879,4.8899,4.8954,4.8962,4.8937,4.8941,4.8961,4.8959,4.9018,4.9028,4.8996,4.8996,4.8996,0,4.8271,4.8304,4.8376,4.8406,4.8438,4.8485,4.8519,4.8562,4.8596,4.8659,4.8684,4.8739,4.8785,4.8867,4.8911,4.8963,4.8973,4.899,4.8981,4.8971,4.8974,4.8972,4.8976,4.8991,4.8991,4.8991,4.8991,0,4.8295,4.8316,4.8364,4.8421,4.8461,4.8507,4.8553,4.8576,4.8628,4.8664,4.872,4.8756,4.8827,4.8881,4.8938,4.8971,4.899,4.8994,4.9002,4.8992,4.8977,4.8987,4.8941,4.8992,4.8992,4.8992,4.8992,4.8992,4.8306,4.8338,4.8394,4.8447,4.8488,4.8532,4.8567,4.8607,4.8654,4.8717,4.874,4.8796,4.8849,4.8929,4.8962,4.9007,4.9008,4.9019,4.9022,4.9025,4.9024,4.8971,4.9018,4.9018,4.9018,4.9018,4.9018,0,4.8332,4.8371,4.842,4.8486,4.8528,4.8545,4.8598,4.8632,4.8683,4.8731,4.8777,4.8842,4.8896,4.8945,4.9002,4.9028,4.9039,4.9041,4.904,4.9047,4.9019,4.9007,4.9032,4.9032,4.9032,4.9032,4.9032,4.9032,4.8351,4.8407,4.8436,4.8513,4.8551,4.8609,4.8638,4.8679,4.8718,4.879,4.8836,4.8869,4.8918,4.8979,4.9029,4.9043,4.9062,4.9063,4.9078,4.9051,4.9049,4.9047,4.9036,4.9067,4.9067,4.9103,4.9103,4.9104]}]]